ROCKY HARBOUR CS/NF, current weather conditions

sailwx.info

Wind from 030 at 1 knots

Air temperature -1.0° C
Dewpoint -2.0° C

Last reported at 2015-Jan-29 08:00 UTC.
Time now 2015-Jan-29 10:18 UTC

Location: N 49°34' W 057°53'.
View on Google Maps.

See reports from other nearby stations

  
Tides and Currents Weather Stations Pressure Air Temp Water Temp Dewpoint Dewpoint Depression Visibility Wind Speed Wind Dir Waves Ship Positions
date/time (UTC)wind fromknots sea level pressurealtimeterstation pressurevisibilityair tempwater tempwave heightnotes
2015-Jan-29 09:00 090 1 -1.0
2015-Jan-29 08:00 030 1 -1.0
2015-Jan-29 07:00 150 6 -1.0
2015-Jan-29 06:00 150 5 -1.0
2015-Jan-29 05:00 160 4 -1.0
2015-Jan-29 04:00 150 3 -1.0
2015-Jan-29 03:00 120 2 -1.0
2015-Jan-29 02:00 180 4 -1.0
2015-Jan-29 01:00 170 8 gusting 15 -1.0
2015-Jan-29 00:00 120 3 -1.0
2015-Jan-28 23:00 170 4 -1.0
2015-Jan-28 22:00 150 7 gusting 15 -1.0
2015-Jan-28 21:00 100 3 -0.0
2015-Jan-28 20:00 160 6 -0.0
2015-Jan-28 19:00 150 6 1.0
2015-Jan-28 18:00 150 9 gusting 17 1.0
2015-Jan-28 17:00 160 5 2.0
2015-Jan-28 16:00 130 5 -0.0
2015-Jan-28 15:00 100 5 -1.0
2015-Jan-28 14:00 080 10 gusting 20 -2.0
2015-Jan-28 13:00 080 11 gusting 18 -2.0
2015-Jan-28 12:00 090 17 gusting 31 -3.0
2015-Jan-28 11:00 090 17 gusting 33 -4.0
2015-Jan-28 10:00 100 13 gusting 25 -4.0
2015-Jan-28 09:00 090 15 gusting 35 -5.0
2015-Jan-28 08:00 070 17 gusting 33 -5.0
2015-Jan-28 07:00 070 16 gusting 33 -6.0
2015-Jan-28 06:00 070 17 gusting 33 -6.0
2015-Jan-28 05:00 070 18 gusting 34 -7.0
2015-Jan-28 04:00 070 17 gusting 31 -8.0
2015-Jan-28 03:00 090 14 gusting 27 -8.0
2015-Jan-28 02:00 070 19 gusting 32 -9.0
2015-Jan-28 01:00 070 19 gusting 31 -10.0
2015-Jan-28 00:00 070 18 gusting 29 -11.0
2015-Jan-27 23:00 200 3 -12.0
2015-Jan-27 22:00 100 10 gusting 20 -12.0
2015-Jan-27 21:00 130 4 -12.0
2015-Jan-27 20:00 100 13 gusting 23 -12.0
2015-Jan-27 19:00 080 11 gusting 20 -13.0
2015-Jan-27 18:00 090 10 gusting 17 -12.0
2015-Jan-27 17:00 100 8 -12.0
2015-Jan-27 16:00 160 4 -12.0
2015-Jan-27 15:00 210 2 -12.0
2015-Jan-27 14:00 110 3 -13.0
2015-Jan-27 13:00 080 4 -15.0
2015-Jan-27 12:00 110 2 -18.0
2015-Jan-27 11:00 070 1 -16.0
2015-Jan-27 10:00 010 2 -15.0